• In Czech Republic
  • List of Countries
  • For 7 days
  • Water Temperature
  • Satellite Maps
  • Weather Map
  • Weather Widgets
  • user-avatar
    Login

    Hourly Weather Newcastle

    Today, 24 June, Sunday

    Time Temperature Precipitation Wind Pressure Humidity
    00:00 +14°C° 0.5 mm 3 mps 751 mmHg 69%
    01:00 +13°C° 0.5 mm 3 mps 751 mmHg 78%
    02:00 +13°C° 0.5 mm 2 mps 750 mmHg 86%
    03:00 +13°C° 0.9 mm 2 mps 750 mmHg 89%
    04:00 +13°C° 0.9 mm 1 mps 750 mmHg 91%
    05:00 +13°C° 0.9 mm 1 mps 750 mmHg 94%
    06:00 +14°C° 0.1 mm 1 mps 749 mmHg 92%
    07:00 +14°C° 0.1 mm 1 mps 749 mmHg 91%
    08:00 +15°C° 0.1 mm 1 mps 749 mmHg 89%
    09:00 +18°C° 0 mm 1 mps 749 mmHg 79%
    10:00 +20°C° 0 mm 2 mps 749 mmHg 69%
    11:00 +24°C° 0 mm 2 mps 750 mmHg 59%
    12:00 +23°C° 0.1 mm 2 mps 750 mmHg 64%
    13:00 +23°C° 0.1 mm 2 mps 750 mmHg 68%
    14:00 +21°C° 0.1 mm 2 mps 750 mmHg 73%
    15:00 +20°C° 0.2 mm 3 mps 750 mmHg 75%
    16:00 +18°C° 0.2 mm 3 mps 751 mmHg 77%
    17:00 +17°C° 0.2 mm 4 mps 751 mmHg 79%
    18:00 +14°C° 0.1 mm 3 mps 752 mmHg 80%
    19:00 +13°C° 0.1 mm 3 mps 752 mmHg 82%
    20:00 +12°C° 0.1 mm 3 mps 753 mmHg 84%
    21:00 +12°C° 0.4 mm 2 mps 753 mmHg 87%
    22:00 +10°C° 0.4 mm 2 mps 753 mmHg 91%
    23:00 +10°C° 0.4 mm 2 mps 754 mmHg 94%

    Tomorrow, 25 June, Monday

    Time Temperature Precipitation Wind Pressure Humidity
    00:00 +9°C° 0.8 mm 2 mps 754 mmHg 95%
    01:00 +9°C° 0.8 mm 2 mps 753 mmHg 96%
    02:00 +9°C° 0.8 mm 2 mps 753 mmHg 97%
    03:00 +9°C° 1.5 mm 2 mps 753 mmHg 97%
    04:00 +9°C° 1.5 mm 3 mps 753 mmHg 97%
    05:00 +9°C° 1.5 mm 3 mps 754 mmHg 97%
    06:00 +9°C° 1.4 mm 3 mps 754 mmHg 97%
    07:00 +9°C° 1.4 mm 3 mps 754 mmHg 96%
    08:00 +8°C° 1.4 mm 4 mps 754 mmHg 96%
    09:00 +10°C° 0.3 mm 4 mps 754 mmHg 92%
    10:00 +10°C° 0.3 mm 4 mps 754 mmHg 89%
    11:00 +10°C° 0.3 mm 5 mps 754 mmHg 85%
    12:00 +12°C° 0 mm 5 mps 754 mmHg 76%
    13:00 +14°C° 0 mm 5 mps 754 mmHg 67%
    14:00 +15°C° 0 mm 6 mps 755 mmHg 58%
    15:00 +15°C° 0 mm 6 mps 755 mmHg 57%
    16:00 +15°C° 0 mm 6 mps 755 mmHg 56%
    17:00 +15°C° 0 mm 6 mps 755 mmHg 55%
    18:00 +13°C° 0 mm 5 mps 756 mmHg 62%
    19:00 +11°C° 0 mm 4 mps 756 mmHg 68%
    20:00 +10°C° 0 mm 3 mps 757 mmHg 75%
    21:00 +8°C° 0 mm 2 mps 757 mmHg 80%
    22:00 +7°C° 0 mm 2 mps 758 mmHg 84%
    23:00 +6°C° 0 mm 2 mps 758 mmHg 89%

    Day after tomorrow, 26 June, Tuesday

    Time Temperature Precipitation Wind Pressure Humidity
    00:00 +5°C° 0 mm 2 mps 758 mmHg 88%
    01:00 +5°C° 0 mm 2 mps 758 mmHg 87%
    02:00 +5°C° 0 mm 2 mps 758 mmHg 86%
    03:00 +5°C° 0 mm 2 mps 759 mmHg 84%
    04:00 +5°C° 0 mm 2 mps 759 mmHg 82%
    05:00 +5°C° 0 mm 2 mps 759 mmHg 79%
    06:00 +8°C° 0 mm 2 mps 759 mmHg 72%
    07:00 +12°C° 0 mm 2 mps 759 mmHg 64%
    08:00 +15°C° 0 mm 2 mps 759 mmHg 57%
    09:00 +17°C° 0 mm 2 mps 759 mmHg 50%
    10:00 +19°C° 0 mm 2 mps 758 mmHg 44%
    11:00 +20°C° 0 mm 3 mps 758 mmHg 37%
    12:00 +21°C° 0 mm 3 mps 758 mmHg 37%
    13:00 +22°C° 0 mm 3 mps 757 mmHg 36%
    14:00 +24°C° 0 mm 3 mps 757 mmHg 36%
    15:00 +22°C° 0 mm 3 mps 757 mmHg 39%
    16:00 +23°C° 0 mm 2 mps 756 mmHg 43%
    17:00 +23°C° 0 mm 2 mps 756 mmHg 47%
    18:00 +20°C° 0 mm 2 mps 756 mmHg 54%
    19:00 +17°C° 0 mm 2 mps 756 mmHg 62%
    20:00 +15°C° 0 mm 1 mps 756 mmHg 69%
    21:00 +15°C° 0 mm 2 mps 756 mmHg 69%
    22:00 +14°C° 0 mm 2 mps 755 mmHg 68%
    23:00 +14°C° 0 mm 2 mps 755 mmHg 67%

    27 June, Wednesday

    Time Temperature Precipitation Wind Pressure Humidity
    00:00 +14°C° 0 mm 2 mps 755 mmHg 64%
    01:00 +13°C° 0 mm 3 mps 755 mmHg 61%
    02:00 +14°C° 0 mm 3 mps 755 mmHg 58%
    03:00 +14°C° 0 mm 3 mps 755 mmHg 60%
    04:00 +13°C° 0 mm 3 mps 755 mmHg 63%
    05:00 +13°C° 0 mm 3 mps 755 mmHg 66%
    06:00 +17°C° 0 mm 3 mps 755 mmHg 62%
    07:00 +19°C° 0 mm 3 mps 755 mmHg 58%
    08:00 +21°C° 0 mm 3 mps 755 mmHg 55%
    09:00 +23°C° 0 mm 4 mps 754 mmHg 48%
    10:00 +27°C° 0 mm 4 mps 754 mmHg 41%
    11:00 +29°C° 0 mm 5 mps 754 mmHg 33%
    12:00 +30°C° 0 mm 5 mps 753 mmHg 32%
    13:00 +30°C° 0 mm 5 mps 753 mmHg 31%
    14:00 +32°C° 0 mm 5 mps 753 mmHg 30%
    15:00 +30°C° 0 mm 5 mps 753 mmHg 34%
    16:00 +30°C° 0 mm 4 mps 753 mmHg 37%
    17:00 +29°C° 0 mm 4 mps 753 mmHg 41%
    18:00 +27°C° 0 mm 4 mps 753 mmHg 49%
    19:00 +25°C° 0 mm 3 mps 754 mmHg 57%
    20:00 +21°C° 0 mm 3 mps 754 mmHg 65%
    21:00 +20°C° 0 mm 3 mps 754 mmHg 65%
    22:00 +20°C° 0 mm 4 mps 754 mmHg 65%
    23:00 +19°C° 0 mm 4 mps 754 mmHg 66%

    28 June, Thursday

    Time Temperature Precipitation Wind Pressure Humidity
    00:00 +18°C° 0 mm 4 mps 755 mmHg 68%
    01:00 +18°C° 0 mm 4 mps 755 mmHg 70%
    02:00 +17°C° 0 mm 3 mps 755 mmHg 73%
    03:00 +17°C° 0 mm 3 mps 755 mmHg 75%
    04:00 +17°C° 0 mm 3 mps 755 mmHg 77%
    05:00 +17°C° 0 mm 3 mps 755 mmHg 80%
    06:00 +17°C° 0.6 mm 3 mps 755 mmHg 85%
    07:00 +17°C° 0.6 mm 4 mps 755 mmHg 91%
    08:00 +17°C° 0.6 mm 4 mps 755 mmHg 96%
    09:00 +18°C° 0.6 mm 4 mps 754 mmHg 94%
    10:00 +17°C° 0.6 mm 5 mps 754 mmHg 92%
    11:00 +19°C° 0.6 mm 6 mps 754 mmHg 90%
    12:00 +19°C° 1.2 mm 6 mps 753 mmHg 92%
    13:00 +17°C° 1.2 mm 6 mps 753 mmHg 93%
    14:00 +17°C° 1.2 mm 6 mps 753 mmHg 94%
    15:00 +17°C° 1.4 mm 6 mps 752 mmHg 95%
    16:00 +17°C° 1.4 mm 7 mps 752 mmHg 95%
    17:00 +17°C° 1.4 mm 7 mps 751 mmHg 95%
    18:00 +17°C° 0.5 mm 7 mps 751 mmHg 95%
    19:00 +17°C° 0.5 mm 6 mps 751 mmHg 95%
    20:00 +19°C° 0.5 mm 6 mps 751 mmHg 95%
    21:00 +19°C° 0.2 mm 6 mps 750 mmHg 95%
    22:00 +19°C° 0.2 mm 6 mps 750 mmHg 95%
    23:00 +19°C° 0.2 mm 6 mps 750 mmHg 95%

    29 June, Friday

    Time Temperature Precipitation Wind Pressure Humidity
    00:00 +19°C° 0.9 mm 5 mps 750 mmHg 96%
    01:00 +19°C° 0.9 mm 5 mps 750 mmHg 96%
    02:00 +20°C° 0.9 mm 5 mps 750 mmHg 97%
    03:00 +20°C° 0.1 mm 4 mps 751 mmHg 97%
    04:00 +20°C° 0.1 mm 4 mps 751 mmHg 97%
    05:00 +19°C° 0.1 mm 3 mps 752 mmHg 97%
    06:00 +20°C° 0 mm 3 mps 752 mmHg 94%
    07:00 +21°C° 0 mm 4 mps 753 mmHg 90%
    08:00 +22°C° 0 mm 4 mps 753 mmHg 86%
    09:00 +23°C° 0 mm 4 mps 754 mmHg 80%
    10:00 +25°C° 0 mm 4 mps 754 mmHg 74%
    11:00 +26°C° 0 mm 4 mps 754 mmHg 69%
    12:00 +28°C° 0.1 mm 4 mps 754 mmHg 64%
    13:00 +29°C° 0.1 mm 4 mps 754 mmHg 60%
    14:00 +30°C° 0.1 mm 4 mps 754 mmHg 56%
    15:00 +30°C° 0.1 mm 3 mps 754 mmHg 57%
    16:00 +30°C° 0.1 mm 3 mps 754 mmHg 58%
    17:00 +30°C° 0.1 mm 2 mps 754 mmHg 59%
    18:00 +28°C° 0.1 mm 2 mps 754 mmHg 67%
    19:00 +26°C° 0.1 mm 2 mps 755 mmHg 76%
    20:00 +24°C° 0.1 mm 2 mps 755 mmHg 84%
    21:00 +23°C° 0 mm 2 mps 755 mmHg 87%
    22:00 +21°C° 0 mm 2 mps 755 mmHg 90%
    23:00 +20°C° 0 mm 2 mps 756 mmHg 93%
    Show more